Вернуться в каталог

TANSEI 3 DEB

АктивенUNKNOWN
NORAD 13133·DEBRIS·🇯🇵 Japan

Запущен Feb 19, 1977 с Uchinoura Space Center

Loading…

Ближайшие Пролёты (ближайшие 24 часа)

TLE

СвежийSource: Space-Track

Эпоха: Sep 11, 2026, 08:12 UTC

1 13133U 77012J   26254.34225633  .00000415  00000-0  12433-2 0  9990
2 13133  65.8427  15.9210 1650436 324.0656  25.9476 10.89526482953986

Отслеживайте TANSEI 3 DEB в реальном времени с AllMySat

Download on the App Store